�N����,����,����,����,����,�C��,���x,�~����,�S�V����,�ő�u�ԕ���,,,,,
,,,,,,,,,����,����,����,�N��,,
yyyy/mm/dd,hh:mm:ss,(16),16����,m/s,��,%,mm,KW/�u,(16),16����,m/s,Time,,
2017/10/1,1:00:00,13,���k��,2.2,4.5,92.5,0,0,12,��,3.4,44,,
2017/10/1,2:00:00,13,���k��,2.4,4.1,91.7,0,0,13,���k��,3.3,59,,
2017/10/1,3:00:00,13,���k��,1.2,2.9,91.2,0,0,12,��,4,36,,
2017/10/1,4:00:00,12,��,3.1,3.1,91.5,0,0,13,���k��,4.6,42,,
2017/10/1,5:00:00,12,��,2.1,2.7,92.6,0,0,13,���k��,4,4,,
2017/10/1,6:00:00,12,��,2.1,3.4,93.4,0,0.04,12,��,4.8,41,,
2017/10/1,7:00:00,12,��,0.3,7.2,81.4,0,0.21,12,��,3.8,10,,
2017/10/1,8:00:00,16,�É�,0,12.2,57.1,0,0.4,11,���쐼,1.3,19,,
2017/10/1,9:00:00,8,��,3.1,15.7,44.4,0,0.56,8,��,5.9,59,,
2017/10/1,10:00:00,9,��쐼,4.9,17.8,41.9,0,0.7,8,��,9.2,54,,
2017/10/1,11:00:00,8,��,4.4,19.2,45.6,0,0.78,8,��,8.5,5,,
2017/10/1,12:00:00,11,���쐼,8.2,20,39.4,0,0.79,11,���쐼,13.8,50,,
2017/10/1,13:00:00,11,���쐼,8.4,20.2,42.4,0,0.74,10,�쐼,14.6,8,,
2017/10/1,14:00:00,10,�쐼,7.2,19.8,39.8,0,0.64,10,�쐼,13.2,38,,
2017/10/1,15:00:00,11,���쐼,7.6,19.2,45.9,0,0.45,11,���쐼,12.1,35,,
2017/10/1,16:00:00,10,�쐼,4.1,18,53,0,0.21,11,���쐼,12,5,,
2017/10/1,17:00:00,9,��쐼,3.4,16.3,60.7,0,0.06,9,��쐼,7.4,5,,
2017/10/1,18:00:00,9,��쐼,3.7,16.2,67.5,0,0,10,�쐼,6,9,,
2017/10/1,19:00:00,6,�쓌,1.6,15.6,72.6,0,0,9,��쐼,4.8,3,,
2017/10/1,20:00:00,9,��쐼,4.8,17,68.6,0,0,9,��쐼,9.2,57,,
2017/10/1,21:00:00,9,��쐼,4.7,17.2,63.1,0,0,10,�쐼,10.5,29,,
2017/10/1,22:00:00,8,��,4.7,16.2,77.6,0,0,9,��쐼,9,54,,
2017/10/1,23:00:00,9,��쐼,3,16.9,79.9,0,0,10,�쐼,7.5,55,,
2017/10/1,0:00:00,8,��,3.1,16.7,81.9,0,0,8,��,10.6,22,,
2017/10/2,1:00:00,9,��쐼,3.7,17.3,78.2,0,0,8,��,10,53,,
2017/10/2,2:00:00,9,��쐼,5,18.3,71.4,0,0,9,��쐼,10.3,57,,
2017/10/2,3:00:00,9,��쐼,4.8,18.3,66.5,0,0,8,��,11,15,,
2017/10/2,4:00:00,9,��쐼,4.4,17.9,67.9,0,0,8,��,9.9,40,,
2017/10/2,5:00:00,8,��,3.7,17.4,70.9,0,0,7,��쓌,9.2,26,,
2017/10/2,6:00:00,8,��,3.9,17.9,66.5,0,0.02,8,��,8.7,21,,
2017/10/2,7:00:00,8,��,3.2,19.8,57.8,0,0.14,8,��,8.2,3,,
2017/10/2,8:00:00,8,��,4.1,21.1,51.4,0,0.37,8,��,7.3,47,,
2017/10/2,9:00:00,8,��,3.9,21.8,46.3,0,0.54,8,��,8.1,40,,
2017/10/2,10:00:00,8,��,4.1,22.9,43.3,0,0.61,8,��,7,50,,
2017/10/2,11:00:00,9,��쐼,4.3,23.7,37.1,0,0.75,8,��,7.6,56,,
2017/10/2,12:00:00,10,�쐼,5.7,22.9,38.8,0,0.68,9,��쐼,10.4,55,,
2017/10/2,13:00:00,10,�쐼,3.8,22.3,48.5,0,0.39,10,�쐼,9.7,38,,
2017/10/2,14:00:00,10,�쐼,4,21.5,52.2,0,0.27,10,�쐼,7.4,17,,
2017/10/2,15:00:00,9,��쐼,3.4,21.9,46.5,0,0.35,8,��,8.3,49,,
2017/10/2,16:00:00,6,�쓌,2.5,19.4,54.8,0,0.23,9,��쐼,5.8,18,,
2017/10/2,17:00:00,7,��쓌,3.2,18.1,68.7,0,0.09,5,���쓌,8.3,15,,
2017/10/2,18:00:00,6,�쓌,3,16.4,76.4,0,0,6,�쓌,6.3,31,,
2017/10/2,19:00:00,4,��,2.3,14.9,80.9,0,0,6,�쓌,3.6,9,,
2017/10/2,20:00:00,15,�k�k��,0.6,13.9,85.7,0,0,14,�k��,2.8,57,,
2017/10/2,21:00:00,11,���쐼,0.7,13.3,87.2,0,0,12,��,4.9,38,,
2017/10/2,22:00:00,1,�k�k��,0.5,13.2,89.1,0,0,5,���쓌,2.7,31,,
2017/10/2,23:00:00,13,���k��,0.9,14.2,90.6,0,0,2,�k��,2.9,9,,
2017/10/2,0:00:00,10,�쐼,0.9,14.9,89.5,0,0,12,��,3.2,14,,
2017/10/3,1:00:00,12,��,0.4,14.6,86.4,0,0,9,��쐼,3.1,2,,
2017/10/3,2:00:00,4,��,4.2,14,84.2,0,0,4,��,9.1,46,,
2017/10/3,3:00:00,3,���k��,3.5,12.9,87.4,0,0,3,���k��,7.4,26,,
2017/10/3,4:00:00,3,���k��,3.3,12.4,89.4,0,0,2,�k��,6.2,12,,
2017/10/3,5:00:00,1,�k�k��,1.9,12.3,91.4,0,0,3,���k��,4.6,5,,
2017/10/3,6:00:00,3,���k��,1.7,12,93,0.5,0.01,3,���k��,2.6,59,,
2017/10/3,7:00:00,12,��,0.5,12.3,94.2,0.5,0.02,2,�k��,4.1,32,,
2017/10/3,8:00:00,9,��쐼,1.3,12.6,94.8,0.5,0.05,9,��쐼,2.3,54,,
2017/10/3,9:00:00,9,��쐼,0.9,12.2,92.4,1.5,0.08,11,���쐼,3.2,10,,
2017/10/3,10:00:00,7,��쓌,0.9,12.3,93.5,1,0.06,7,��쓌,3.5,38,,
2017/10/3,11:00:00,7,��쓌,2.5,13.1,84.3,0,0.32,7,��쓌,4.4,50,,
2017/10/3,12:00:00,7,��쓌,2.1,14.6,73.3,0,0.44,8,��,4,52,,
2017/10/3,13:00:00,6,�쓌,2.8,14.1,62.2,0,0.62,8,��,4.5,40,,
2017/10/3,14:00:00,6,�쓌,2.2,15.1,65.6,0,0.59,6,�쓌,4.4,43,,
2017/10/3,15:00:00,6,�쓌,1.7,13.7,70.8,0,0.43,6,�쓌,4.8,29,,
2017/10/3,16:00:00,3,���k��,1.8,14,76.3,0,0.2,6,�쓌,3,19,,
2017/10/3,17:00:00,1,�k�k��,0.6,12.6,79.7,0,0.05,14,�k��,2.1,25,,
2017/10/3,18:00:00,14,�k��,1.7,11.9,81.8,0,0,16,�k,3.4,48,,
2017/10/3,19:00:00,14,�k��,1.2,10.3,70,0,0,14,�k��,5.2,16,,
2017/10/3,20:00:00,13,���k��,0.8,6.8,73,0,0,13,���k��,2.6,54,,
2017/10/3,21:00:00,15,�k�k��,2.2,8.8,73.4,0,0,15,�k�k��,4.3,59,,
2017/10/3,22:00:00,14,�k��,3.1,8.4,69.3,0,0,13,���k��,7.1,42,,
2017/10/3,23:00:00,14,�k��,2,7.6,70.6,0,0,15,�k�k��,7.2,7,,
2017/10/3,0:00:00,14,�k��,3,7.8,63,0,0,13,���k��,6.5,58,,
2017/10/4,1:00:00,15,�k�k��,1.3,6.3,64.2,0,0,14,�k��,6.1,3,,
2017/10/4,2:00:00,14,�k��,2.1,2.6,76.3,0,0,13,���k��,3.1,29,,
2017/10/4,3:00:00,12,��,2.1,1.3,83.9,0,0,12,��,3.4,40,,
2017/10/4,4:00:00,13,���k��,2.4,0.9,90,0,0,12,��,3.7,44,,
2017/10/4,5:00:00,12,��,2.3,1,92.2,0,0,12,��,3.5,7,,
2017/10/4,6:00:00,12,��,1.7,1.4,93.1,0,0.03,11,���쐼,3.5,27,,
2017/10/4,7:00:00,13,���k��,2,4.6,78.4,0,0.2,13,���k��,3,14,,
2017/10/4,8:00:00,13,���k��,1.8,8.8,62.7,0,0.4,1,�k�k��,3.3,14,,
2017/10/4,9:00:00,10,�쐼,1.5,10.9,39.2,0,0.56,11,���쐼,3.5,56,,
2017/10/4,10:00:00,7,��쓌,2.5,12,41,0,0.64,6,�쓌,6,40,,
2017/10/4,11:00:00,7,��쓌,3,12.7,45.5,0,0.74,5,���쓌,5.1,47,,
2017/10/4,12:00:00,7,��쓌,2.3,11.9,51.1,0,0.53,6,�쓌,5.1,16,,
2017/10/4,13:00:00,4,��,1.6,14.2,41.9,0,0.53,6,�쓌,4.1,3,,
2017/10/4,14:00:00,6,�쓌,2.1,12.2,46.9,0,0.43,4,��,3.6,26,,
2017/10/4,15:00:00,8,��,1.5,12.7,44.3,0,0.41,8,��,3.3,20,,
2017/10/4,16:00:00,15,�k�k��,1.4,9.8,59.7,1,0.11,13,���k��,6.1,48,,
2017/10/4,17:00:00,13,���k��,0.5,7.5,80.8,0.5,0.05,2,�k��,2,2,,
2017/10/4,18:00:00,14,�k��,2.5,7.3,81.3,0,0,15,�k�k��,5.1,50,,
2017/10/4,19:00:00,16,�É�,0.2,3.7,83,0,0,16,�k,3.9,5,,
2017/10/4,20:00:00,14,�k��,2.3,4.9,87,0,0,12,��,3.4,45,,
2017/10/4,21:00:00,12,��,2.5,2.3,83.7,0,0,14,�k��,4,7,,
2017/10/4,22:00:00,13,���k��,2.5,3.4,90.9,0,0,12,��,4.4,53,,
2017/10/4,23:00:00,7,��쓌,1,1.9,88.1,0,0,13,���k��,5.1,28,,
2017/10/4,0:00:00,13,���k��,1.7,1.9,89.8,0,0,13,���k��,2.6,52,,
2017/10/5,1:00:00,13,���k��,1.4,3.5,93.4,0,0,12,��,3.9,30,,
2017/10/5,2:00:00,13,���k��,3.3,3.4,89.9,0,0,13,���k��,4.6,50,,
2017/10/5,3:00:00,11,���쐼,1.3,1.7,85.4,0,0,13,���k��,4.9,14,,
2017/10/5,4:00:00,12,��,2.1,2.4,89.8,0,0,13,���k��,4.1,43,,
2017/10/5,5:00:00,16,�É�,0,0.9,90.2,0,0,12,��,4.2,11,,
2017/10/5,6:00:00,13,���k��,2.5,1.4,92.8,0,0.03,12,��,3.8,59,,
2017/10/5,7:00:00,14,�k��,1.7,5.1,76.8,0,0.2,15,�k�k��,3,54,,
2017/10/5,8:00:00,12,��,1.5,9.3,54.9,0,0.4,12,��,2.5,46,,
2017/10/5,9:00:00,2,�k��,1.1,12.9,35.9,0,0.58,12,��,2.5,1,,
2017/10/5,10:00:00,13,���k��,1.6,13.3,32.5,0,0.7,12,��,5.9,59,,
2017/10/5,11:00:00,7,��쓌,2.4,13.5,47.2,0,0.66,5,���쓌,5.1,17,,
2017/10/5,12:00:00,8,��,4.1,13.1,40.3,0,0.85,7,��쓌,6.9,19,,
2017/10/5,13:00:00,8,��,3.5,13.9,44,0,0.78,7,��쓌,7.2,11,,
2017/10/5,14:00:00,7,��쓌,3.6,13.3,47.3,0,0.64,7,��쓌,6.7,11,,
2017/10/5,15:00:00,7,��쓌,2.7,13.3,48.5,0,0.48,8,��,6.5,8,,
2017/10/5,16:00:00,8,��,2.1,12.6,54.5,0,0.29,7,��쓌,5.4,5,,
2017/10/5,17:00:00,12,��,0.3,8.6,65,0,0.08,9,��쐼,2.5,3,,
2017/10/5,18:00:00,12,��,2.1,4.1,72.2,0,0,12,��,2.4,59,,
2017/10/5,19:00:00,12,��,2.7,4.2,87.1,0,0,12,��,3.9,46,,
2017/10/5,20:00:00,13,���k��,2.7,4.4,90.5,0,0,13,���k��,3.7,56,,
2017/10/5,21:00:00,12,��,3.1,2.9,92,0,0,12,��,4.2,52,,
2017/10/5,22:00:00,13,���k��,0.6,1.9,91.5,0,0,12,��,3,5,,
2017/10/5,23:00:00,12,��,2,1.5,92.9,0,0,12,��,2.7,0,,
2017/10/5,0:00:00,14,�k��,1.8,2.5,94.6,0,0,13,���k��,3.3,45,,
2017/10/6,1:00:00,13,���k��,2.4,2.2,94.2,0,0,12,��,3.5,34,,
2017/10/6,2:00:00,13,���k��,2.7,4.1,93.4,0,0,14,�k��,3.9,55,,
2017/10/6,3:00:00,13,���k��,1.5,1.7,88.1,0,0,14,�k��,3.9,1,,
2017/10/6,4:00:00,12,��,2.3,1.8,91.4,0,0,14,�k��,3.9,27,,
2017/10/6,5:00:00,13,���k��,2.8,2.2,92.4,0,0,12,��,4.1,53,,
2017/10/6,6:00:00,12,��,2.6,2.7,92.8,0,0.02,12,��,4.2,4,,
2017/10/6,7:00:00,12,��,2.3,5.1,84.8,0,0.18,12,��,3.4,53,,
2017/10/6,8:00:00,12,��,0.8,9.5,68.3,0,0.37,13,���k��,2.5,30,,
2017/10/6,9:00:00,3,���k��,0.6,13.9,42.5,0,0.55,4,��,1.9,59,,
2017/10/6,10:00:00,3,���k��,1.3,15,43,0,0.67,5,���쓌,3.4,59,,
2017/10/6,11:00:00,4,��,2.4,15,54.7,0,0.71,6,�쓌,4.1,12,,
2017/10/6,12:00:00,4,��,2.4,15.6,59,0,0.74,4,��,4.2,41,,
2017/10/6,13:00:00,3,���k��,3,15.3,60,0,0.71,4,��,4.7,4,,
2017/10/6,14:00:00,4,��,2.6,15.5,65.5,0,0.43,4,��,5.1,19,,
2017/10/6,15:00:00,8,��,2.9,15.9,68,0,0.28,8,��,5.5,51,,
2017/10/6,16:00:00,9,��쐼,4.1,15.5,69.1,0,0.16,8,��,9.1,30,,
2017/10/6,17:00:00,9,��쐼,3.7,14.9,70.8,0,0.04,8,��,7.4,0,,
2017/10/6,18:00:00,7,��쓌,2.1,14.2,73.3,0,0,8,��,6.4,13,,
2017/10/6,19:00:00,8,��,1.9,13.9,76.4,0,0,9,��쐼,5.1,4,,
2017/10/6,20:00:00,8,��,1.5,13.2,84.6,0,0,8,��,4.2,37,,
2017/10/6,21:00:00,10,�쐼,1.1,12.4,86.3,0,0,8,��,4.4,45,,
2017/10/6,22:00:00,9,��쐼,2.5,12.1,87.4,0,0,9,��쐼,5,58,,
2017/10/6,23:00:00,10,�쐼,1.3,11.5,91,0,0,8,��,4.7,8,,
2017/10/6,0:00:00,13,���k��,1.1,9.2,87.7,0,0,11,���쐼,2.6,4,,
2017/10/7,1:00:00,13,���k��,1.9,9.2,92.5,0,0,13,���k��,3.4,14,,
2017/10/7,2:00:00,13,���k��,1.2,9.3,93.4,0,0,12,��,2.9,44,,
2017/10/7,3:00:00,12,��,0.9,9.8,94.3,0,0,13,���k��,2.1,17,,
2017/10/7,4:00:00,12,��,1.8,9.6,94.2,0,0,12,��,2.8,4,,
2017/10/7,5:00:00,12,��,1.7,10,94.2,0,0,12,��,2.6,45,,
2017/10/7,6:00:00,12,��,0.9,10.4,93.3,0,0.01,12,��,3,18,,
2017/10/7,7:00:00,16,�É�,0,11.5,93.8,0,0.02,12,��,2.2,3,,
2017/10/7,8:00:00,8,��,1.1,14.2,96.6,0,0.04,6,�쓌,5.3,41,,
2017/10/7,9:00:00,8,��,2.2,15.7,88,0,0.16,8,��,5.5,41,,
2017/10/7,10:00:00,8,��,2.7,16.3,85.7,0,0.21,8,��,5.2,36,,
2017/10/7,11:00:00,8,��,3.5,16.4,81.3,0,0.32,8,��,6.8,57,,
2017/10/7,12:00:00,7,��쓌,2.9,16.3,80.2,0,0.3,6,�쓌,5.4,53,,
2017/10/7,13:00:00,7,��쓌,1.8,16.1,82.3,0,0.24,6,�쓌,5.1,15,,
2017/10/7,14:00:00,7,��쓌,1,15.7,86,0,0.13,7,��쓌,3.9,29,,
2017/10/7,15:00:00,8,��,0.7,16,86.9,0,0.09,8,��,3.2,2,,
2017/10/7,16:00:00,7,��쓌,0.8,15.3,89.6,1,0.03,7,��쓌,3,31,,
2017/10/7,17:00:00,7,��쓌,0.6,15.1,92.4,1,0.01,6,�쓌,1.7,0,,
2017/10/7,18:00:00,16,�É�,0.1,15,93.7,1,0,6,�쓌,2.2,29,,
2017/10/7,19:00:00,9,��쐼,0.8,15.1,94.5,2,0,7,��쓌,1.9,34,,
2017/10/7,20:00:00,16,�É�,0,15.1,95,0.5,0,7,��쓌,1,3,,
2017/10/7,21:00:00,14,�k��,0.9,15,95,1.5,0,14,�k��,1.4,53,,
2017/10/7,22:00:00,16,�É�,0,14.5,94.8,0.5,0,16,�k,1.2,1,,
2017/10/7,23:00:00,14,�k��,0.4,14.5,95.4,0.5,0,14,�k��,2,9,,
2017/10/7,0:00:00,13,���k��,0.6,14.1,95.6,0,0,13,���k��,1.6,59,,
2017/10/8,1:00:00,14,�k��,1.9,14,95.5,0,0,14,�k��,3.2,57,,
2017/10/8,2:00:00,15,�k�k��,0.9,14,95.7,0,0,13,���k��,3.7,18,,
2017/10/8,3:00:00,14,�k��,1.5,13.7,95.7,0,0,14,�k��,2.5,52,,
2017/10/8,4:00:00,14,�k��,2.4,13.6,95.3,0,0,14,�k��,3.4,57,,
2017/10/8,5:00:00,14,�k��,2.9,13.6,95.4,0,0,13,���k��,5.2,52,,
2017/10/8,6:00:00,16,�É�,0,13.8,96,0,0.01,1,�k�k��,4.1,0,,
2017/10/8,7:00:00,13,���k��,0.6,14.6,96.4,0,0.08,14,�k��,1.8,7,,
2017/10/8,8:00:00,16,�k,0.9,16.3,80.5,0,0.22,1,�k�k��,1.9,56,,
2017/10/8,9:00:00,4,��,1.8,17,73.5,0,0.35,4,��,3,58,,
2017/10/8,10:00:00,6,�쓌,2.2,18.4,65.3,0,0.6,6,�쓌,3,56,,
2017/10/8,11:00:00,6,�쓌,2.7,16.8,71.4,0,0.61,6,�쓌,4.1,49,,
2017/10/8,12:00:00,6,�쓌,2.1,17.1,71,0,0.59,6,�쓌,3.7,4,,
2017/10/8,13:00:00,7,��쓌,2.2,16.6,70.8,0,0.62,6,�쓌,3.5,22,,
2017/10/8,14:00:00,7,��쓌,1.8,16,76.9,0,0.33,7,��쓌,2.9,49,,
2017/10/8,15:00:00,6,�쓌,1.2,15.6,77.2,0,0.3,7,��쓌,2.9,23,,
2017/10/8,16:00:00,9,��쐼,1.1,15,82.4,0,0.1,9,��쐼,1.9,47,,
2017/10/8,17:00:00,16,�É�,0,14.6,88.5,0,0.02,10,�쐼,1.1,1,,
2017/10/8,18:00:00,12,��,1.8,13.5,88.8,0,0,12,��,2.5,57,,
2017/10/8,19:00:00,13,���k��,0.7,13.6,93.8,0,0,14,�k��,3.3,29,,
2017/10/8,20:00:00,8,��,0.8,12.4,92.9,0,0,5,���쓌,2.6,49,,
2017/10/8,21:00:00,16,�É�,0,11.9,93.2,0,0,6,�쓌,1.6,13,,
2017/10/8,22:00:00,10,�쐼,0.7,12.6,94.9,0,0,12,��,1.6,50,,
2017/10/8,23:00:00,14,�k��,0.6,13.3,96.2,0,0,13,���k��,2.6,21,,
2017/10/8,0:00:00,16,�É�,0,13.5,96.7,0,0,6,�쓌,1.1,16,,
2017/10/9,1:00:00,14,�k��,1.6,12.6,96.5,0,0,14,�k��,2.6,57,,
2017/10/9,2:00:00,13,���k��,2.2,12,95.9,0,0,13,���k��,3.6,56,,
2017/10/9,3:00:00,13,���k��,0.8,12.1,96.3,0,0,13,���k��,2.6,16,,
2017/10/9,4:00:00,16,�É�,0,12,96.4,0,0,12,��,1.3,36,,
2017/10/9,5:00:00,16,�É�,0,11.9,96.7,0,0,3,���k��,0.8,54,,
2017/10/9,6:00:00,16,�É�,0,12.1,96.8,0,0.01,16,�É�,0,0,,
2017/10/9,7:00:00,16,�É�,0.2,12.9,97,0,0.03,7,��쓌,1.6,30,,
2017/10/9,8:00:00,13,���k��,0.4,13.2,97.1,0,0.07,13,���k��,1.1,58,,
2017/10/9,9:00:00,16,�É�,0,13.7,96.7,0,0.11,13,���k��,0.7,0,,
2017/10/9,10:00:00,6,�쓌,1.7,14.6,91.3,0,0.17,5,���쓌,3,54,,
2017/10/9,11:00:00,5,���쓌,1.8,13.8,92.6,0,0.2,5,���쓌,3.1,26,,
2017/10/9,12:00:00,5,���쓌,1.3,14.8,91.9,0,0.24,4,��,2.7,1,,
2017/10/9,13:00:00,4,��,0.7,14.4,88.5,0,0.2,5,���쓌,2.8,18,,
2017/10/9,14:00:00,6,�쓌,1.1,14.4,89.3,0,0.13,6,�쓌,2.3,58,,
2017/10/9,15:00:00,4,��,0.7,14.2,91.3,0.5,0.1,3,���k��,2.3,41,,
2017/10/9,16:00:00,16,�É�,0.1,14.1,90.4,0,0.07,6,�쓌,1.5,6,,
2017/10/9,17:00:00,6,�쓌,0.5,14,90,0,0.01,8,��,1.1,58,,
2017/10/9,18:00:00,16,�É�,0,13.7,92.4,0,0,6,�쓌,1.9,7,,
2017/10/9,19:00:00,13,���k��,0.3,13.5,93.6,0,0,12,��,1.5,52,,
2017/10/9,20:00:00,16,�É�,0.1,13.3,93.4,0,0,13,���k��,2.4,43,,
2017/10/9,21:00:00,16,�É�,0.1,12.4,93.1,0,0,12,��,1.4,29,,
2017/10/9,22:00:00,16,�É�,0.2,12.3,93.4,0,0,10,�쐼,1.2,42,,
2017/10/9,23:00:00,12,��,0.4,11.9,94.7,0,0,12,��,1.8,43,,
2017/10/9,0:00:00,13,���k��,1.2,11.4,95.2,0,0,14,�k��,2.8,43,,
2017/10/10,1:00:00,16,�k,1.3,11.2,95.4,0,0,2,�k��,3.5,43,,
2017/10/10,2:00:00,12,��,1.6,10.5,95.3,0,0,12,��,2.5,7,,
2017/10/10,3:00:00,14,�k��,1.1,10.8,96,0,0,14,�k��,3,26,,
2017/10/10,4:00:00,12,��,1.8,10.8,96,0,0,12,��,2.7,43,,
2017/10/10,5:00:00,16,�É�,0,11.1,95.9,0,0,12,��,2.2,6,,
2017/10/10,6:00:00,12,��,1.5,11.4,96.2,0,0.01,11,���쐼,2.2,57,,
2017/10/10,7:00:00,15,�k�k��,0.4,12.2,96.2,0,0.02,12,��,2,0,,
2017/10/10,8:00:00,16,�É�,0,13.5,95.4,0,0.06,2,�k��,1.3,46,,
2017/10/10,9:00:00,16,�É�,0,13.8,91.7,0,0.08,6,�쓌,0.8,52,,
2017/10/10,10:00:00,7,��쓌,0.3,13.8,86.5,0,0.08,7,��쓌,1.7,12,,
2017/10/10,11:00:00,1,�k�k��,0.6,13.3,86.5,0.5,0.09,1,�k�k��,2.5,44,,
2017/10/10,12:00:00,5,���쓌,2.5,12.4,91.9,0.5,0.08,4,��,4.5,25,,
2017/10/10,13:00:00,5,���쓌,1.9,12.1,92.2,0,0.08,5,���쓌,4.2,17,,
2017/10/10,14:00:00,5,���쓌,2.1,11.9,90.8,0,0.07,5,���쓌,3.6,44,,
2017/10/10,15:00:00,4,��,2,12.3,88.2,0,0.09,5,���쓌,3.6,27,,
2017/10/10,16:00:00,6,�쓌,1.8,12.1,86.3,0,0.05,5,���쓌,3,55,,
2017/10/10,17:00:00,4,��,1,11.7,88.5,0,0.01,5,���쓌,3,3,,
2017/10/10,18:00:00,4,��,1.5,11.2,86.1,0,0,4,��,2.9,36,,
2017/10/10,19:00:00,4,��,3.5,11.4,74.8,0,0,4,��,5.6,53,,
2017/10/10,20:00:00,4,��,3.1,10.9,74.4,0,0,3,���k��,5.2,1,,
2017/10/10,21:00:00,4,��,3,10.5,71.9,0,0,3,���k��,5.1,14,,
2017/10/10,22:00:00,2,�k��,1.6,9.8,75.8,0,0,4,��,4.7,20,,
2017/10/10,23:00:00,13,���k��,1.1,9.4,83.2,0,0,2,�k��,2.5,2,,
2017/10/10,0:00:00,12,��,1.1,9,87.4,0,0,13,���k��,2,0,,
2017/10/11,1:00:00,2,�k��,0.9,8.8,89.6,0,0,1,�k�k��,1.5,58,,
2017/10/11,2:00:00,16,�É�,0,8.4,90.8,0,0,1,�k�k��,1.5,8,,
2017/10/11,3:00:00,14,�k��,1.4,8.3,89.5,0,0,14,�k��,2.1,56,,
2017/10/11,4:00:00,13,���k��,1.9,8.2,88.3,0,0,14,�k��,3,29,,
2017/10/11,5:00:00,14,�k��,1.7,8.1,87.1,0,0,14,�k��,2.6,42,,
2017/10/11,6:00:00,14,�k��,0.9,7.9,85.3,0,0.01,14,�k��,3.7,14,,
2017/10/11,7:00:00,14,�k��,1.7,7.9,83.9,0,0.03,14,�k��,2.5,52,,
2017/10/11,8:00:00,15,�k�k��,1.1,8.4,82.6,0,0.06,13,���k��,2.5,46,,
2017/10/11,9:00:00,16,�k,1.4,9.1,78.5,0,0.1,14,�k��,3,11,,
2017/10/11,10:00:00,1,�k�k��,1.5,9.4,79.3,0,0.14,1,�k�k��,3.2,45,,
2017/10/11,11:00:00,1,�k�k��,1.9,9.2,80.4,0.5,0.21,3,���k��,3.9,11,,
2017/10/11,12:00:00,2,�k��,2.5,8.8,81.3,0.5,0.21,2,�k��,3.8,59,,
2017/10/11,13:00:00,4,��,2.9,9.2,72.6,0,0.23,3,���k��,5.3,11,,
2017/10/11,14:00:00,4,��,2.7,8.8,78.1,0,0.15,4,��,4.6,58,,
2017/10/11,15:00:00,5,���쓌,2.3,8.2,83.2,0,0.09,4,��,3.8,59,,
2017/10/11,16:00:00,4,��,1.3,7.9,86.7,0.5,0.03,5,���쓌,3.4,0,,
2017/10/11,17:00:00,15,�k�k��,0.5,7.1,89.4,0.5,0.01,4,��,2.6,2,,
2017/10/11,18:00:00,1,�k�k��,0.9,6.5,90.9,1.5,0,1,�k�k��,2.4,51,,
2017/10/11,19:00:00,16,�k,1.9,6.1,92,1.5,0,1,�k�k��,3.3,57,,
2017/10/11,20:00:00,14,�k��,0.5,6,92.3,1,0,1,�k�k��,3.6,8,,
2017/10/11,21:00:00,13,���k��,2.5,5.9,93.1,0.5,0,13,���k��,7.5,12,,
2017/10/11,22:00:00,14,�k��,2.8,5.9,94.3,1,0,1,�k�k��,5,29,,
2017/10/11,23:00:00,13,���k��,2.7,5.8,94.8,1.5,0,13,���k��,5.5,9,,
2017/10/11,0:00:00,14,�k��,4,5.5,94.5,1.5,0,14,�k��,6,56,,
2017/10/12,1:00:00,14,�k��,3.5,5.4,94.9,1,0,7,��쓌,7,7,,
2017/10/12,2:00:00,13,���k��,3.9,5.3,95.4,2,0,14,�k��,7.4,8,,
2017/10/12,3:00:00,14,�k��,3.1,5.2,95.5,2,0,14,�k��,6.6,34,,
2017/10/12,4:00:00,13,���k��,3.3,5.1,95.6,1,0,13,���k��,6.7,54,,
2017/10/12,5:00:00,14,�k��,3.1,5.2,96,1.5,0,5,���쓌,6.4,1,,
2017/10/12,6:00:00,14,�k��,3.6,5.2,96.1,2,0,13,���k��,6.4,55,,
2017/10/12,7:00:00,14,�k��,3.2,5.5,96.4,1.5,0.02,14,�k��,5.7,31,,
2017/10/12,8:00:00,14,�k��,2.7,6.1,96.7,1.5,0.06,14,�k��,5.7,7,,
2017/10/12,9:00:00,13,���k��,3.4,7,96.7,3.5,0.09,13,���k��,5.9,47,,
2017/10/12,10:00:00,14,�k��,2.9,7.9,96.4,1.5,0.15,14,�k��,5.2,33,,
2017/10/12,11:00:00,14,�k��,2.2,8.5,91.7,0.5,0.22,14,�k��,6.1,6,,
2017/10/12,12:00:00,15,�k�k��,1.6,8.7,91.7,1,0.18,14,�k��,4.4,15,,
2017/10/12,13:00:00,16,�k,1.3,9.2,90.8,0,0.17,14,�k��,4.6,14,,
2017/10/12,14:00:00,3,���k��,0.7,9.7,92.2,0.5,0.15,14,�k��,4.8,37,,
2017/10/12,15:00:00,2,�k��,1.5,10.1,85.7,0,0.2,3,���k��,2.7,39,,
2017/10/12,16:00:00,3,���k��,1.8,9.6,84.7,0,0.1,4,��,2.8,32,,
2017/10/12,17:00:00,16,�k,0.8,9.2,89.6,0,0.01,2,�k��,3.2,10,,
2017/10/12,18:00:00,15,�k�k��,0.7,8.9,91.2,0,0,1,�k�k��,3.3,24,,
2017/10/12,19:00:00,16,�É�,0,8.7,91.9,0,0,1,�k�k��,1.8,6,,
2017/10/12,20:00:00,12,��,0.3,8.4,93.5,0,0,13,���k��,1.4,36,,
2017/10/12,21:00:00,16,�É�,0,8.6,94.1,0,0,9,��쐼,1.1,46,,
2017/10/12,22:00:00,16,�É�,0,8,93.9,0,0,9,��쐼,1.9,32,,
2017/10/12,23:00:00,14,�k��,0.6,7.2,93.5,0.5,0,14,�k��,1.8,50,,
2017/10/12,0:00:00,13,���k��,0.4,7.4,94,0,0,12,��,1.5,49,,
2017/10/13,1:00:00,16,�É�,0.1,7.6,94.8,0,0,13,���k��,2.5,43,,
2017/10/13,2:00:00,13,���k��,1.2,7.3,95.5,0,0,13,���k��,2.5,59,,
2017/10/13,3:00:00,13,���k��,1.7,7,95.2,0,0,12,��,2.9,37,,
2017/10/13,4:00:00,12,��,2.4,6.8,94.3,0,0,12,��,3.9,56,,
2017/10/13,5:00:00,13,���k��,2.5,5.8,93.3,0,0,13,���k��,4.1,52,,
2017/10/13,6:00:00,13,���k��,1.6,4.1,93.5,0,0.01,12,��,3.9,2,,
2017/10/13,7:00:00,13,���k��,3.5,7,96.1,0,0.1,13,���k��,4.9,58,,
2017/10/13,8:00:00,15,�k�k��,0.6,10.4,71.3,0,0.36,13,���k��,4.7,0,,
2017/10/13,9:00:00,15,�k�k��,1.3,12.1,53.2,0,0.53,14,�k��,2.8,43,,
2017/10/13,10:00:00,6,�쓌,2.7,13.1,55.1,0,0.65,6,�쓌,4,52,,
2017/10/13,11:00:00,6,�쓌,2.8,13.1,58.9,0,0.71,7,��쓌,5.1,50,,
2017/10/13,12:00:00,7,��쓌,2.4,13.8,53.8,0,0.64,8,��,5.1,44,,
2017/10/13,13:00:00,4,��,1.5,14.4,59.8,0,0.4,4,��,4.4,20,,
2017/10/13,14:00:00,3,���k��,3.4,14,47.6,0,0.47,3,���k��,6.9,54,,
2017/10/13,15:00:00,3,���k��,1.1,14.3,53.5,0,0.43,3,���k��,5.3,6,,
2017/10/13,16:00:00,12,��,3.5,13.4,43.5,0,0.27,12,��,6.6,39,,
2017/10/13,17:00:00,11,���쐼,2.6,11.2,52.7,0,0.05,11,���쐼,6.6,1,,
2017/10/13,18:00:00,14,�k��,1.5,8.3,65.7,0,0,13,���k��,6.2,3,,
2017/10/13,19:00:00,13,���k��,2.2,8.4,74.2,0,0,13,���k��,4.6,56,,
2017/10/13,20:00:00,12,��,2.1,5.5,76.7,0,0,13,���k��,4.7,1,,
2017/10/13,21:00:00,12,��,2.6,3.4,79.3,0,0,13,���k��,3.9,17,,
2017/10/13,22:00:00,12,��,2.9,2.6,86,0,0,12,��,3.5,56,,
2017/10/13,23:00:00,12,��,3.1,2.5,88.2,0,0,12,��,4.3,21,,
2017/10/13,0:00:00,13,���k��,2.7,2.4,88.7,0,0,13,���k��,4.2,45,,
2017/10/14,1:00:00,13,���k��,3,1.5,88.4,0,0,13,���k��,4.2,8,,
2017/10/14,2:00:00,13,���k��,1.5,0.6,90.6,0,0,12,��,4.2,31,,
2017/10/14,3:00:00,12,��,2.8,-0.5,91.5,0,0,12,��,4.1,53,,
2017/10/14,4:00:00,13,���k��,1.1,-0.4,92.7,0,0,12,��,6.3,17,,
2017/10/14,5:00:00,12,��,1,-1.6,92.5,0,0,1,�k�k��,2.5,13,,
2017/10/14,6:00:00,13,���k��,2.5,-0.1,94.3,0,0.01,16,�k,3.3,57,,
2017/10/14,7:00:00,13,���k��,1.7,2.7,86.8,0,0.16,12,��,3.5,25,,
2017/10/14,8:00:00,14,�k��,0.9,7.5,63.7,0,0.35,12,��,4,10,,
2017/10/14,9:00:00,4,��,1.4,11.9,41.2,0,0.53,4,��,2.5,58,,
2017/10/14,10:00:00,2,�k��,1.5,13.9,37.3,0,0.65,3,���k��,3.5,24,,
2017/10/14,11:00:00,6,�쓌,3.7,11.9,41,0,0.72,6,�쓌,5.8,51,,
2017/10/14,12:00:00,5,���쓌,3.8,12.3,47.3,0,0.73,5,���쓌,6,41,,
2017/10/14,13:00:00,5,���쓌,3.8,13.4,46.2,0,0.67,5,���쓌,5.9,36,,
2017/10/14,14:00:00,4,��,4.1,13.1,54.9,0,0.57,4,��,6.7,39,,
2017/10/14,15:00:00,4,��,2.6,13.2,63.7,0,0.42,4,��,5.7,0,,
2017/10/14,16:00:00,3,���k��,0.9,13.2,62.2,0,0.22,2,�k��,2.6,13,,
2017/10/14,17:00:00,16,�É�,0.2,6.9,71.1,0,0.05,7,��쓌,1.2,24,,
2017/10/14,18:00:00,12,��,2,4.8,81.5,0,0,12,��,2.7,34,,
2017/10/14,19:00:00,12,��,2.2,2.9,88.4,0,0,13,���k��,2.8,28,,
2017/10/14,20:00:00,11,���쐼,2.5,5.1,93.5,0,0,10,�쐼,4.1,39,,
2017/10/14,21:00:00,10,�쐼,1.7,4.3,84.1,0,0,9,��쐼,4.1,39,,
2017/10/14,22:00:00,8,��,2.6,10.1,87.9,0,0,8,��,5.3,59,,
2017/10/14,23:00:00,7,��쓌,3.8,11.6,77.2,0,0,7,��쓌,8.1,38,,
2017/10/14,0:00:00,12,��,4.2,9.6,73.3,0,0,8,��,7.6,6,,
2017/10/15,1:00:00,13,���k��,1.6,5.3,82.5,0,0,12,��,3.1,52,,
2017/10/15,2:00:00,14,�k��,2.8,6.6,92,0,0,15,�k�k��,4.9,59,,
2017/10/15,3:00:00,14,�k��,2.5,5.7,90.6,0,0,14,�k��,5.9,15,,
2017/10/15,4:00:00,14,�k��,2.8,4.7,88.9,0,0,8,��,5.2,50,,
2017/10/15,5:00:00,13,���k��,2.7,2.6,89.1,0,0,5,���쓌,5.7,4,,
2017/10/15,6:00:00,13,���k��,2.3,1.4,92.4,0,0.01,13,���k��,3.5,19,,
2017/10/15,7:00:00,13,���k��,2.3,5.3,94.5,0,0.15,12,��,3.5,42,,
2017/10/15,8:00:00,12,��,0.8,8.8,68.4,0,0.35,12,��,3.3,7,,
2017/10/15,9:00:00,7,��쓌,0.8,12.3,36.1,0,0.53,11,���쐼,3.6,16,,
2017/10/15,10:00:00,5,���쓌,2.5,13.6,34.4,0,0.64,5,���쓌,5.1,47,,
2017/10/15,11:00:00,5,���쓌,3.2,13.9,37.5,0,0.76,4,��,5.5,17,,
2017/10/15,12:00:00,4,��,3.8,14.4,42.4,0,0.74,3,���k��,6.4,27,,
2017/10/15,13:00:00,1,�k�k��,3,14.1,35.3,0,0.53,4,��,6.6,48,,
2017/10/15,14:00:00,14,�k��,4.8,13.3,30.7,0,0.48,16,�k,9.9,25,,
2017/10/15,15:00:00,14,�k��,4.2,12.3,33.3,0,0.35,14,�k��,10.1,26,,
2017/10/15,16:00:00,14,�k��,3.4,11.1,35.3,0,0.23,3,���k��,9.7,6,,
2017/10/15,17:00:00,15,�k�k��,1.6,7.9,42.3,0,0.03,15,�k�k��,7,4,,
2017/10/15,18:00:00,12,��,1.4,3.2,55.2,0,0,15,�k�k��,2.7,1,,
2017/10/15,19:00:00,12,��,2.7,0.7,70.7,0,0,12,��,3.2,51,,
2017/10/15,20:00:00,12,��,1.3,0.7,79.4,0,0,12,��,2.8,18,,
2017/10/15,21:00:00,12,��,2.6,-0.6,85.8,0,0,12,��,3.2,53,,
2017/10/15,22:00:00,12,��,1.3,-0.4,89.1,0,0,16,�k,2.5,23,,
2017/10/15,23:00:00,13,���k��,1.5,-0.4,88.7,0,0,11,���쐼,3.6,20,,
2017/10/15,0:00:00,12,��,1.8,-0.8,88.3,0,0,12,��,3.5,59,,
2017/10/16,1:00:00,12,��,0.9,-1.4,89.7,0,0,12,��,3.5,13,,
2017/10/16,2:00:00,12,��,2.7,-1,91.7,0,0,12,��,4.1,57,,
2017/10/16,3:00:00,12,��,3,-0.5,91.2,0,0,12,��,4.8,33,,
2017/10/16,4:00:00,12,��,2.7,-0.4,89.8,0,0,12,��,4.5,20,,
2017/10/16,5:00:00,13,���k��,2.9,0.9,89.5,0,0,12,��,4.2,54,,
2017/10/16,6:00:00,13,���k��,2.1,-0.5,88,0,0.01,11,���쐼,4.3,41,,
2017/10/16,7:00:00,14,�k��,0.7,0.7,88.7,0,0.05,13,���k��,3.8,0,,
2017/10/16,8:00:00,12,��,1.9,4.7,75.7,0,0.23,12,��,2.8,52,,
2017/10/16,9:00:00,13,���k��,0.5,8.6,54.5,0,0.39,12,��,2.3,36,,
2017/10/16,10:00:00,5,���쓌,1.7,12.5,37.1,0,0.61,5,���쓌,2.7,41,,
2017/10/16,11:00:00,7,��쓌,2.5,12.6,29.7,0,0.69,7,��쓌,4.3,59,,
2017/10/16,12:00:00,6,�쓌,2.6,13.4,33.7,0,0.71,5,���쓌,5.2,36,,
2017/10/16,13:00:00,6,�쓌,3.3,12.1,43.9,0,0.64,6,�쓌,6,32,,
2017/10/16,14:00:00,7,��쓌,1.9,12.1,35.3,0,0.52,6,�쓌,5,19,,
2017/10/16,15:00:00,6,�쓌,3,12.2,35.5,0,0.37,6,�쓌,4.8,57,,
2017/10/16,16:00:00,7,��쓌,1.4,10.7,43.6,0,0.21,7,��쓌,5.3,6,,
2017/10/16,17:00:00,12,��,0.4,4.6,55.9,0,0.04,7,��쓌,2.1,3,,
2017/10/16,18:00:00,12,��,1.5,2.6,68.1,0,0,12,��,2.5,58,,
2017/10/16,19:00:00,13,���k��,1.9,3.6,87.3,0,0,12,��,3.4,52,,
2017/10/16,20:00:00,13,���k��,1.7,0.9,81.1,0,0,12,��,3.4,17,,
2017/10/16,21:00:00,12,��,3.3,0.3,87.6,0,0,12,��,4,57,,
2017/10/16,22:00:00,12,��,2.3,-0.9,86.1,0,0,12,��,3.4,56,,
2017/10/16,23:00:00,12,��,2.2,-2.3,88.5,0,0,13,���k��,2.9,0,,
2017/10/16,0:00:00,12,��,2.1,-1.6,89.9,0,0,12,��,4,33,,
2017/10/17,1:00:00,12,��,2.6,-0.8,89.1,0,0,12,��,3.9,26,,
2017/10/17,2:00:00,12,��,3.2,-1.4,87.5,0,0,12,��,4.3,24,,
2017/10/17,3:00:00,12,��,1.3,-0.4,89.6,0,0,12,��,3.4,25,,
2017/10/17,4:00:00,13,���k��,1.9,0.4,85.1,0,0,13,���k��,3.9,43,,